Location: Buckenweiler
(49.0667°N, 10.2500°E)
Time: 11:59:10
(UTC+00:00)

Nadezhda 3 Rocket - Pass Details

Date: 18 January 2026
Orbit: 956 x 997 km, 82.9° (Epoch: 16 February)

Event Time Altitude Azimuth Distance (km) Brightness Sun altitude
Rises 05:28:49 0° 345° (NNW) 3,679 6.7 -15.5°
Reaches altitude 10° 05:31:26 10° 339° (NNW) 2,733 6.0 -15.0°
Maximum altitude 05:37:16 43° 271° (W) 1,351 4.3 -14.1°
Drops below altitude 10° 05:43:08 10° 202° (SSW) 2,742 6.3 -13.2°
Sets 05:45:46 0° 196° (SSW) 3,691 7.0 -12.8°
